SCP
0 0 0 0 0 0 0 0 0 0 0 0 0 1 1 2 2 2 2 2 1 1 1 1 1 1 2 3 4 3 2 1 1 1 1 1 0 0 0 0 1 1 0 0
0 0 0 0 0 0 0 0 0 0 0 0 0 1 1 1 2 2 2 1 1 1 1 1 1 1 1 2 2 2 2 1 1 1 1 0 0 0 0 0 0 0 0 0
0 0 0 0 0 0 0 0 0 0 0 0 0 1 1 1 1 1 1 1 0 0 0 0 0 1 1 1 1 1 1 1 0 0 1 1 0 0 0 0 0 0 0 0
0 0 0 0 0 0 0 0 0 0 0 0 0 1 1 1 1 1 0 0 0 0 0 0 0 0 0 0 0 0 0 0 0 0 1 1 1 0 0 0 0 0 0 0
0 0 0 0 0 0 0 0 0 0 0 0 0 0 1 1 1 0 0 0 0 0 0 0 0 0 0 0 0 0 0 0 0 0 0 1 1 1 1 1 0 0 1 1
0 0 0 0 0 0 0 0 0 0 0 0 0 0 1 1 0 0 0 0 0 0 0 0 0 0 0 0 0 0 0 0 0 0 0 0 0 1 1 1 1 1 1 1
0 0 0 0 0 0 0 0 0 0 0 0 0 0 0 0 0 0 0 0 0 0 0 0 0 0 0 0 0 0 0 0 0 0 0 0 0 0 0 1 1 1 0 0
0 0 0 0 0 0 0 0 0 0 0 0 0 0 0 0 0 0 0 0 0 0 0 0 0 0 0 0 0 0 0 0 0 0 0 0 0 0 0 0 0 0 0 0
0 0 0 0 0 0 0 0 0 0 0 0 0 0 0 0 0 0 0 0 0 0 0 0 0 0 0 0 0 0 0 0 0 0 0 0 0 0 0 0 0 0 0 0
0 0 0 0 0 0 0 0 0 0 0 0 0 0 0 0 0 0 0 0 0 0 0 0 0 0 0 0 0 0 0 0 0 0 0 0 0 0 0 0 0 0 0 0
0 0 0 0 0 0 0 0 0 0 0 0 0 0 0 0 0 0 0 0 0 0 0 0 0 0 0 0 0 0 0 0 0 0 0 0 0 0 0 0 0 0 0 0
0 0 0 0 0 0 0 0 0 0 0 0 0 0 0 0 0 0 0 0 0 0 0 0 0 0 0 0 0 0 0 0 0 0 0 0 0 0 0 0 0 0 0 0
0 0 0 0 0 0 0 0 0 0 0 0 0 0 0 0 0 0 0 0 0 0 0 0 0 0 0 0 0 0 0 0 0 0 0 0 0 0 0 0 0 0 0 0
0 0 0 0 0 0 0 0 0 0 0 0 0 0 0 0 0 0 0 0 0 0 0 0 0 0 0 0 0 0 0 0 0 0 0 0 0 0 0 0 0 0 0 0
0 0 0 0 0 0 0 0 0 0 0 0 0 0 0 0 0 0 0 0 0 0 0 0 0 0 0 0 0 0 0 0 0 0 0 0 0 0 0 0 0 0 0 0
0 0 0 0 0 0 0 0 0 0 0 0 0 0 0 0 0 0 0 0 0 0 0 0 0 0 0 0 0 0 0 0 0 0 0 0 0 0 0 0 0 0 0 0
0 0 0 0 0 0 0 0 0 0 0 0 0 0 0 0 0 0 0 0 0 0 0 0 0 0 0 0 0 0 0 0 0 0 0 0 0 0 0 0 0 0 0 0
0 0 0 0 0 0 0 0 0 0 0 0 0 0 0 0 0 0 0 0 0 0 0 0 0 0 0 0 0 0 0 0 0 0 0 0 0 0 0 0 0 0 0 0
0 0 0 0 0 0 0 0 0 0 0 0 0 0 0 0 0 0 0 0 0 0 0 0 0 0 0 0 0 0 0 0 0 0 0 0 0 0 0 0 0 0 0 0
0 0 0 0 0 0 0 0 0 0 0 0 0 0 0 0 0 0 0 0 0 0 0 0 0 0 0 0 0 0 0 0 0 0 0 0 0 0 0 0 0 0 0 0
0 0 0 0 0 0 0 0 0 0 0 0 0 0 0 0 0 0 0 0 0 0 0 0 0 0 0 0 0 0 0 0 0 0 0 0 0 0 0 0 0 0 0 0
0 0 0 0 0 0 0 0 0 0 0 0 0 0 0 0 0 0 0 0 0 0 0 0 0 0 0 0 0 0 0 0 0 0 0 0 0 0 0 0 0 0 0 0
0 0 0 0 0 0 0 0 0 0 0 0 0 0 0 0 0 0 0 0 0 0 0 0 0 0 0 0 0 0 0 0 0 0 0 0 0 0 0 0 0 0 0 0
0 0 0 0 0 0 0 0 0 0 0 0 0 0 0 0 0 0 0 0 0 0 0 0 0 0 0 0 0 0 0 0 0 0 0 0 0 0 0 0 0 0 0 0
0 0 0 0 0 0 0 0 0 0 0 0 0 0 0 0 0 0 0 0 0 0 0 0 0 0 0 0 0 0 0 0 0 0 0 0 0 0 0 0 0 0 0 0
0 0 0 0 0 0 0 0 0 0 0 0 0 0 0 0 0 0 0 0 0 0 0 0 0 0 0 0 0 0 0 0 0 0 0 0 0 0 0 0 0 0 0 0
Wind_Speed
2 2 4 9 6 5 5 5 6 5 5 10 18 20 17 14 15 13 9 8 8 7 2 2 3 6 7 7 7 8 10 11 11 6 4 3 3 3 2 3 5 6 6 6
4 2 8 7 6 7 6 5 5 5 8 7 18 17 13 13 11 9 10 11 11 9 7 6 7 7 8 7 5 3 3 5 5 4 4 3 3 2 2 2 4 6 6 6
1 3 6 9 7 6 4 2 2 3 6 8 8 9 12 10 11 10 9 7 7 11 13 13 13 11 11 10 8 6 6 4 4 4 2 1 1 0 0 2 3 5 5 5
4 4 6 8 7 5 7 5 2 2 4 3 5 4 5 6 10 12 10 8 8 9 11 11 11 11 11 9 7 7 6 6 6 5 4 3 1 2 4 3 4 4 6 6
5 4 4 5 5 6 8 6 3 3 1 2 3 7 2 2 5 7 8 10 10 9 7 6 7 7 6 5 5 4 5 5 5 5 5 4 3 2 3 2 3 3 4 5
5 3 3 5 5 4 4 5 8 7 5 2 1 5 3 2 2 1 3 5 5 5 4 3 4 5 4 3 3 3 4 3 4 5 6 6 6 6 6 5 4 3 2 2
7 6 4 3 3 6 8 8 6 7 6 4 2 5 3 2 5 5 4 2 2 1 0 1 2 1 1 0 1 1 3 3 4 5 5 6 6 6 6 5 4 4 3 3
5 8 6 3 1 1 2 8 6 2 4 3 3 1 2 3 6 6 5 3 2 1 1 2 3 3 4 4 4 3 2 1 1 2 2 2 2 1 2 3 3 3 3 3
3 6 6 4 1 4 2 1 4 6 0 1 1 3 1 3 5 5 3 2 0 2 3 3 4 4 5 5 6 6 5 4 3 3 3 3 3 3 3 3 2 2 3 4
5 3 5 5 6 6 2 1 6 4 2 2 1 2 5 8 7 3 2 2 2 2 3 5 6 6 5 4 4 4 4 5 6 6 6 5 5 5 5 5 5 4 4 4
3 2 6 6 5 4 5 4 5 3 3 3 2 4 2 5 4 3 3 4 5 6 7 8 8 7 6 5 4 4 5 7 7 8 8 7 7 6 6 5 6 6 5 5
4 5 3 5 4 1 1 1 3 3 3 2 1 4 3 2 2 2 4 5 6 7 8 8 8 7 7 7 7 7 7 8 9 9 8 8 8 7 7 8 8 7 6 6
4 6 5 10 11 8 7 7 4 6 4 3 2 4 4 2 3 4 5 7 8 8 8 7 7 7 7 8 8 8 9 10 10 9 9 10 9 8 9 10 10 8 7 7
6 6 4 3 5 3 6 8 8 6 4 2 1 2 5 7 6 7 7 8 8 6 5 6 6 6 7 7 8 9 9 10 11 10 10 10 11 12 13 11 9 8 7 7
7 4 3 2 4 9 9 9 9 8 4 2 2 2 2 5 5 6 7 9 7 5 7 8 7 7 8 8 8 8 9 9 10 10 11 13 14 13 10 9 9 9 8 9
5 4 5 5 8 9 8 8 7 5 4 2 3 0 3 5 5 7 9 11 8 8 9 10 10 9 9 10 9 9 9 9 9 10 11 12 12 12 11 11 10 9 9 8
3 3 4 5 4 2 5 4 5 3 3 4 2 4 6 6 8 9 10 10 9 12 12 12 11 10 11 10 10 9 9 9 8 9 10 10 11 12 12 12 11 10 10 9
5 3 3 1 5 2 2 2 4 4 4 3 1 5 6 7 8 8 9 9 11 13 12 11 11 11 10 10 9 8 7 7 7 7 8 8 6 7 8 8 8 8 7 6
4 5 4 3 2 2 0 3 3 1 3 1 2 6 8 8 6 6 9 9 11 12 12 11 11 12 10 9 8 7 6 6 6 6 5 5 6 6 6 6 6 6 5 6
6 6 6 3 2 3 3 4 3 1 2 2 5 8 9 7 7 7 8 9 10 10 9 9 9 9 8 8 7 8 8 8 9 9 9 7 6 6 7 7 7 5 5 6
5 6 5 3 2 3 2 4 4 5 7 8 6 8 7 5 7 10 11 9 9 9 10 9 8 8 8 9 8 9 11 12 13 13 12 11 9 8 8 8 7 6 6 6
3 3 1 2 2 6 3 4 3 6 7 7 6 6 6 8 10 9 9 9 10 10 9 8 8 11 11 11 11 14 14 14 13 14 14 13 11 10 10 7 6 6 6 7
4 6 6 6 6 5 1 3 5 6 6 6 5 7 6 7 8 8 8 9 9 9 8 9 12 15 14 12 11 14 14 13 13 13 14 13 12 10 8 7 7 7 6 6
2 3 3 2 2 3 2 1 3 4 4 5 5 6 6 7 8 8 8 8 9 9 10 13 15 15 15 13 12 13 14 12 12 13 13 11 10 9 8 6 6 5 5 5
5 3 2 2 2 1 4 5 5 4 5 6 6 6 7 7 8 7 8 10 10 11 13 13 14 15 16 15 14 14 13 12 13 13 11 10 8 8 7 6 6 6 6 7
3 6 5 6 6 4 6 6 3 4 5 6 7 8 7 6 7 8 9 10 11 14 13 13 14 14 15 15 15 14 13 12 12 11 9 7 6 5 4 4 6 9 11 13
Wind_Direction
289 94 253 254 240 227 290 321 324 316 344 63 70 63 55 53 59 57 44 41 62 79 73 35 56 98 112 117 125 145 169 197 217 224 220 204 210 217 200 192 186 181 186 184
358 261 259 262 337 349 355 3 356 346 347 59 80 67 56 49 49 48 40 34 42 56 60 57 56 62 71 74 79 102 176 215 239 245 230 202 196 211 214 202 198 196 188 182
1 277 336 352 352 355 342 311 344 360 5 25 89 49 30 35 39 48 51 49 47 51 46 41 42 43 47 46 46 50 44 36 4 333 318 346 52 57 195 215 215 214 198 185
314 322 352 342 324 323 304 269 303 360 48 359 76 83 7 8 21 19 21 24 29 39 47 47 46 46 48 49 49 46 40 26 10 10 23 22 327 251 236 229 223 216 201 191
281 295 314 306 286 311 269 263 318 334 50 62 72 109 237 312 23 4 6 19 18 24 45 59 62 61 51 45 47 45 44 28 10 14 21 34 18 320 310 312 278 247 227 210
257 275 242 243 272 288 322 30 26 37 55 15 239 123 225 234 180 180 15 22 15 18 37 57 73 76 57 28 23 26 35 27 14 23 24 32 27 15 14 11 359 341 317 296
321 319 283 235 313 345 46 64 26 3 3 291 50 97 223 173 169 173 185 220 241 235 14 8 14 58 127 162 336 10 31 16 15 30 28 24 19 16 12 0 5 8 358 345
330 324 313 321 202 231 38 117 133 211 246 294 37 126 217 151 168 174 179 194 218 254 285 277 268 261 250 236 228 225 218 243 18 35 17 6 7 2 334 331 331 335 332 323
244 285 310 348 26 120 9 10 162 151 138 60 124 98 107 212 187 177 162 145 73 344 340 324 307 288 276 268 253 241 234 238 234 219 225 249 263 258 255 256 259 278 297 309
190 254 307 325 24 21 62 100 60 60 62 336 286 222 211 208 215 188 164 194 243 280 290 291 288 280 276 272 263 256 250 253 256 248 239 237 242 247 254 265 272 266 269 277
76 71 328 355 24 353 347 15 78 85 130 133 295 288 255 193 185 182 221 228 232 242 252 259 262 264 263 264 255 250 246 244 249 249 248 251 253 254 259 264 270 273 275 275
25 92 345 313 315 291 292 314 124 118 333 71 137 282 322 145 178 249 284 281 272 272 273 277 282 284 280 277 275 267 257 249 247 248 250 252 257 262 267 267 266 264 267 269
75 74 25 347 346 356 39 13 40 104 87 65 83 309 341 352 332 331 326 323 314 310 317 320 314 301 285 279 278 276 272 267 263 252 244 247 251 253 256 259 263 262 259 264
95 80 127 201 271 346 59 44 48 77 80 53 64 327 4 343 332 333 333 323 312 320 320 308 297 284 277 273 271 271 273 272 271 266 253 244 243 243 246 252 256 260 261 264
82 51 334 310 99 82 68 51 58 74 81 95 324 100 3 329 322 311 309 316 309 309 305 294 280 267 263 262 261 257 255 258 259 258 251 245 244 243 242 245 250 253 252 253
71 57 16 19 103 98 75 44 36 46 36 34 55 80 304 311 331 325 319 318 300 291 292 287 277 266 260 256 254 253 255 258 260 257 251 247 243 239 236 237 241 246 249 251
76 76 42 324 314 86 27 31 47 40 46 78 42 295 308 323 318 306 307 308 289 292 300 297 286 271 264 260 259 260 262 267 270 266 262 254 244 235 230 227 223 226 229 233
124 103 118 331 10 351 222 78 68 103 113 72 330 289 290 291 289 283 287 287 294 300 300 295 287 283 279 277 280 279 283 285 285 283 285 281 265 247 235 221 214 212 204 201
114 126 89 73 328 249 268 14 12 307 204 83 349 318 307 294 297 281 272 280 284 287 290 294 296 295 294 296 298 301 303 303 303 302 299 299 302 290 267 243 230 220 212 209
51 78 91 48 330 264 273 322 301 358 276 292 335 309 301 324 329 284 277 285 288 297 300 301 303 307 313 314 314 312 307 304 298 292 283 276 272 271 270 263 250 233 220 224
18 29 64 54 292 270 318 319 37 58 277 288 284 286 299 300 265 277 298 305 310 307 306 316 330 335 326 318 314 308 303 298 296 295 289 282 274 267 261 254 246 240 237 237
125 93 83 83 338 278 316 48 74 243 251 269 278 288 291 277 277 290 305 311 315 317 325 336 331 319 313 310 307 305 301 299 299 297 293 288 281 276 276 259 249 243 239 238
151 176 182 181 213 234 152 161 217 228 262 281 290 293 286 294 302 312 314 319 323 325 326 326 324 321 319 316 309 305 302 301 299 298 295 291 286 278 271 266 262 254 237 227
231 157 132 265 227 186 168 290 296 293 302 306 301 300 312 318 318 321 327 327 324 324 329 333 329 326 323 318 312 304 302 299 295 294 294 291 285 277 270 265 259 253 239 231
200 154 135 269 276 315 318 312 307 333 346 334 325 324 333 336 332 334 332 325 327 335 336 332 329 325 321 320 316 312 308 303 296 290 287 285 278 273 270 265 256 250 243 235
180 159 168 222 227 205 260 281 342 12 346 335 342 344 344 344 340 340 330 327 334 338 336 330 327 324 322 321 319 316 313 308 303 297 291 284 279 270 264 269 275 258 248 252